Retour au catalogue

CRRES DEB

CANISTER

LostHEO
NORAD 27052·DEBRIS·🇺🇸 United States

Lancé Jul 25, 1990 depuis Cape Canaveral Space Force Station

Loading…

Prochains Passages (prochaines 24 heures)

TLE

PériméSource: Space-Track

Époque: Oct 10, 2025, 10:50 UTC

1 27052U 90065V   25283.45144974  .00001570  00000-0  12370-2 0  9992
2 27052  17.9916 313.3829 6915691 214.3919  70.3563  2.70743309260979

Suivez CRRES DEB en temps réel avec AllMySat

Download on the App Store